Home   Weather   Reykjavik   Past weeks

Flag for Iceland Past Weather in Reykjavik, Iceland — Yesterday and Last 2 Weeks

Now
39 °F

Clear.


Feels Like: 35 °F
Forecast: 40 / 50 °F
Wind: 6 mph from Southeast

Location: Reykjavik Airport

Current Time: Sep 27, 2016 at 12:12:36 AM

Latest Report: Sep 27, 2016 at 12:00 AM


Visibility: 10 mi

Pressure: 29.53 "Hg

Humidity: 70%

Dew Point: 30 °F

Location of ReykjavikLocation

Past Weather in Reykjavik — Graph

°F

Reykjavik Temperature Yesterday

Maximum temperature yesterday: 48 °F (at 2:00 PM)
Minimum temperature yesterday: 36 °F (at 4:00 AM)
Average temperature yesterday: 42 °F

High & Low Weather Summary for the Past Weeks

 TemperatureHumidityPressure
High55 °F (Sep 24, 6:00 PM)88% (Sep 15, 4:00 AM)29.83 "Hg (Sep 15, 4:00 AM)
Low36 °F (Sep 26, 4:00 AM)50% (Sep 18, 2:00 PM)28.97 "Hg (Sep 22, 3:00 AM)
Average47 °F73%29.41 "Hg
* Reported Sep 11 11:00 PM — Sep 26 11:00 PM, Reykjavik, Weather by CustomWeather, © 2016

Note: Actual official high and low records may vary slightly from our data, if they occured in-between our weather recording intervals... More about our weather records

Advertising

Reykjavik Weather History for the Previous 24 Hours

Scroll right to see more
 ConditionsComfort  
Time TempWeatherWind HumidityBarometerVisibility
11:00 PM
Mon, Sep 26
39 °FClear.3 mph70%29.53 "Hg10 mi
10:00 PM39 °FClear.No wind70%29.56 "Hg10 mi
9:00 PM41 °FPassing clouds.5 mph70%29.56 "HgN/A
8:00 PM45 °FPassing clouds.10 mph61%29.59 "HgN/A
7:00 PM46 °FPassing clouds.7 mph57%29.59 "HgN/A
6:00 PM48 °FPassing clouds.9 mph54%29.59 "HgN/A
5:00 PM48 °FPassing clouds.15 mph58%29.59 "HgN/A
4:00 PM48 °FPassing clouds.14 mph58%29.59 "HgN/A
3:00 PM48 °FPassing clouds.9 mph58%29.62 "HgN/A
2:00 PM48 °FPassing clouds.8 mph58%29.59 "HgN/A
1:00 PM46 °FPassing clouds.5 mph57%29.59 "HgN/A
12:00 PM46 °FSunny.9 mph62%29.59 "Hg10 mi
11:00 AM45 °FSunny.No wind66%29.59 "Hg10 mi
10:00 AM43 °FSunny.2 mph71%29.59 "Hg10 mi
9:00 AM41 °FSunny.2 mph70%29.59 "Hg10 mi
8:00 AM36 °FSunny.3 mph81%29.56 "Hg10 mi
7:00 AM37 °FPassing clouds.8 mph81%29.56 "HgN/A
6:00 AM37 °FPassing clouds.3 mph87%29.53 "HgN/A
5:00 AM37 °FClear.No wind81%29.53 "Hg10 mi
4:00 AM36 °FPassing clouds.3 mph87%29.53 "HgN/A
3:00 AM37 °FClear.6 mph87%29.50 "Hg10 mi
2:00 AM39 °FClear.1 mph81%29.50 "Hg10 mi
1:00 AM41 °FClear.2 mph81%29.50 "Hg10 mi
12:00 AM43 °FClear.3 mph76%29.47 "Hg10 mi
Weather by CustomWeather, © 2016

See weather overviewHow to use our weather pages